sat.trackr.live / text

‹ back to catalog

ONEWEB-0360

NORAD 49286 · 2021-090H

PAYLOAD ACTIVE UNKNOWN

§ Identity

Operator
Country
UK
Launch date
2021-10-14
Launch site
VOSTO
Launch vehicle
Mass (kg)
RCS (m²)

Purposes: comms

External: N2YO · Heavens-Above · Gunter

§ Orbital elements

Epoch: 2026-09-19T22:32:19.943808Z

Period
109.03 min
Inclination
87.9142°
Eccentricity
0.0001880
Mean motion
13.20772244 rev/d
Perigee alt
1,180.4 km
Apogee alt
1,183.2 km
Semi-major
7,559.9 km
B*
2.5049e-4
RAAN
255.5380°
Arg perigee
87.8388°
Mean anomaly
272.2961°
Rev number
24,235

§ Raw data

ONEWEB-03601 49286U 21090H   26262.93911972  .00000115  00000+0  25049-3 0  99992 49286  87.9142 255.5380 0001880  87.8388 272.2961 13.20772244242356

JSON: /api/v1/satellites/49286 · /tle

For live sub-satellite position, see the globe view (requires WebGL).

§ Visibility from observer

Set your observer location to see the next 7 days of passes ≥ 10°. The values pass through the URL so the page stays shareable.

No JS? Fill the form by hand. The geolocation button needs JavaScript.